Location: Fredersdorf
(52.1900°N, 12.6391°E)
Time: 23:36:51
(UTC+00:00)

Daily predictions for brighter satellites

Satellite Brightness Start Highest point End
(mag) Time Altitude Azimuth Time Altitude Azimuth Time Altitude Azimuth
ATLAS 3B R/B 3.9 17:42:00 10° NW 17:47:57 32° N 17:54:05 10° ENE
Iridium 4 Rocket 3.5 17:44:11 10° S 17:49:07 70° E 17:54:34 10° N
USA 238 DEB 4.1 17:43:22 10° NW 17:50:20 56° NNE 17:57:36 10° ESE
USA 238 4.2 17:43:28 10° NW 17:50:26 56° NNE 17:57:42 10° ESE
SJ-6B 4.0 17:47:30 10° ESE 17:50:28 23° ENE 17:53:28 10° N
Sich 1 Rocket 4.4 17:46:36 10° SSE 17:50:33 31° E 17:54:34 10° NNE
NOSS 3-1 (C) 4.2 17:48:10 10° WSW 17:53:48 54° NNW 18:00:31 10° NE
ATLAS CENTAUR R/B 2.8 17:50:33 10° WSW 17:54:09 34° NW 17:57:37 10° NNE
Cosmos 2263 Rocket 2.3 17:51:39 10° S 17:57:02 53° ESE 18:02:29 10° NE
Meteor 2-9 Rocket 4.3 17:54:20 10° S 18:00:07 64° E 18:05:51 10° NNE
USA 102 4.0 17:55:21 10° SSE 18:01:53 80° WSW 18:04:31 10° NNW
SL-08 RB Rocket 4.1 17:57:39 10° SE 18:02:02 46° ENE 18:06:24 10° N
Cosmos 1844 Rocket 4.1 18:01:41 10° SE 18:04:58 16° E 18:08:14 10° ENE
CZ-2C R/B 3.4 17:59:44 10° SSE 18:04:59 80° WSW 18:10:36 10° NNW
SJ 16-02 1.8 18:01:17 10° SSW 18:05:39 67° WNW 18:10:02 10° NNE
Cosmos 990 Rocket 3.9 18:00:51 10° SSW 18:05:59 76° ESE 18:11:09 10° NNE
Cosmos 2227 4.2 18:00:55 10° SSW 18:06:36 67° ESE 18:12:17 10° NE
Cosmos 1464 Rocket 4.4 18:01:32 10° SSE 18:07:11 40° E 18:12:54 10° NNE
ISS -1.7 18:05:53 10° SSE 18:07:17 12° SE 18:08:13 11° ESE
Cosmos 1943 3.7 18:03:37 10° NW 18:09:13 65° WSW 18:14:49 10° SSE
Abrixas rocket 3.0 18:06:45 10° SW 18:09:17 29° SSE 18:11:15 14° ESE
Okean 2 Rocket 3.8 18:06:47 10° SSE 18:10:47 32° E 18:14:46 10° NNE
SJ-11-01 4.4 18:06:35 10° SSE 18:11:18 80° WSW 18:16:03 10° NNW
NOSS 8 (F) 4.0 18:09:14 10° SW 18:12:22 72° SE 18:15:24 10° NE
Okean-O 4.4 18:09:37 10° SSW 18:13:41 35° W 18:17:47 10° NNW
Lacrosse 5 rocket 1.7 18:09:58 10° WSW 18:14:13 70° NNW 18:18:43 10° ENE
Ariane Rocket 3.1 18:11:46 10° SE 18:16:42 56° ENE 18:21:41 10° N
Cosmos 1437 3.5 18:14:10 10° NNW 18:17:07 50° W 18:20:01 10° S
NOSS 3-2 (A) 4.1 18:11:34 10° NW 18:18:47 73° NE 18:26:31 12° SE
USA 116 3.6 18:18:06 10° NNE 18:21:26 76° WNW 18:25:05 10° SSW
NOSS 2-2 (C) 4.0 18:18:35 10° S 18:21:38 28° ESE 18:25:02 10° ENE
Cosmos 1833 Rocket 4.3 18:17:57 10° NNW 18:22:07 20° NNE 18:26:05 11° ENE
Cosmos 2227 Rocket 4.3 18:18:31 10° W 18:23:20 28° NW 18:28:12 10° NNE
Resurs 1-3 4.5 18:20:34 13° ESE 18:23:48 31° ENE 18:27:41 10° N
Cosmos 1300 Rocket 4.0 18:19:54 10° SSE 18:24:01 40° E 18:28:11 10° NNE
SPOT 3 Rocket 4.2 18:22:58 13° ESE 18:27:02 36° ENE 18:31:42 10° N
MetOp-A 4.3 18:23:19 10° SE 18:28:32 56° ENE 18:33:47 10° N
YAOGAN 1 4.4 18:25:23 10° SSW 18:29:17 33° W 18:33:15 10° NNW
Cosmos 1867 3.9 18:27:34 10° NW 18:33:00 66° SW 18:38:24 10° SSE
Cosmos 1898 Rocket 3.7 18:27:57 10° SSW 18:33:07 76° WNW 18:38:21 10° NNE
Cosmos 1891 Rocket 4.4 18:28:45 10° S 18:34:49 65° E 18:40:49 10° NNE
Cosmos 1536 Rocket 3.7 18:32:48 10° N 18:37:12 56° ENE 18:41:16 12° SSE
USA 234 4.0 18:35:04 10° ENE 18:40:40 29° SE 18:46:15 10° S
Cosmos 1626 3.6 18:40:06 10° NNE 18:42:53 20° ENE 18:43:18 19° ENE
Meteor 2-5 Rocket 4.3 18:39:24 10° N 18:44:41 40° ENE 18:48:05 20° SE
DMSP B5D2-2 4.3 18:40:13 10° NNE 18:45:20 47° E 18:50:26 10° S
CREW DRAGON DEMO-1 DEB 2.7 18:43:48 10° W 18:46:50 82° S 18:47:59 35° E
Cosmos 1025 Rocket 3.1 18:46:49 10° NNW 18:51:13 84° W 18:55:36 10° S
CZ-4 R/B 4.4 18:48:51 10° SW 18:51:43 18° W 18:54:37 10° NW
Cosmos 2151 Rocket 3.6 18:47:30 10° S 18:51:52 56° E 18:56:17 10° NNE
USA 186 2.3 18:49:04 10° S 18:52:07 58° W 18:55:21 10° NNW
Cosmos 372 Rocket 3.9 18:47:03 10° S 18:52:13 64° ESE 18:57:25 10° NNE
NOSS 3-2 (C) 4.0 18:45:39 10° NW 18:52:54 75° NE 18:58:44 21° SE
Cosmos 2150 Rocket 4.3 18:49:36 10° S 18:54:41 46° ESE 18:59:53 10° NE
Nadezhda 4 Rocket 3.9 18:51:45 10° N 18:57:55 84° E 19:04:03 10° S
Cosmos 1805 3.9 19:00:43 32° E 19:00:50 32° E 19:04:22 10° NNE
Cosmos 2082 Rocket 3.8 18:57:40 10° NNW 19:02:00 22° NE 19:04:43 16° ENE
MOS 1 Rocket 3.8 18:57:56 10° N 19:02:25 57° WNW 19:06:41 10° SSW
OBJECT-B 0.7 19:01:22 37° SSE 19:02:31 72° ENE 19:05:47 10° N
Cosmos 1937 Rocket 4.1 18:57:40 10° SW 19:02:52 60° WNW 19:08:03 10° NNE
Cosmos 2034 Rocket 4.0 18:57:38 10° S 19:03:59 73° E 19:10:20 10° NNE
Cosmos 1125 Rocket 3.9 19:00:49 10° S 19:05:41 39° ESE 19:10:36 10° NE
FREGAT/IRIS 3.2 19:05:32 25° SSW 19:06:43 45° W 19:09:15 10° NNW
Exosat Rocket 4.0 19:01:59 10° S 19:07:00 37° ESE 19:11:34 10° NE
Cosmos 1674 2.6 19:04:11 10° N 19:08:03 75° ENE 19:09:42 33° SSE
COSMOS 2406 3.9 19:04:39 10° NNW 19:09:59 39° NE 19:12:17 27° E
Meteor 1-24 Rocket 4.0 19:06:39 10° N 19:11:56 48° ENE 19:14:10 31° SE
SL-14 R/B 3.9 19:12:26 10° N 19:16:06 37° ENE 19:16:09 37° ENE
Cosmos 1733 4.3 19:17:22 28° ENE 19:17:22 28° ENE 19:19:49 10° NNE
ERS-1 Rocket 4.2 19:17:23 23° ENE 19:18:12 24° ENE 19:22:13 10° N
NOSS 2-2 (E) 3.2 19:15:13 10° SW 19:18:47 80° NW 19:23:04 10° NE
Resurs 01 Rocket 1.6 19:19:16 38° SE 19:20:51 68° ENE 19:25:18 10° N
H-2A R/B 4.2 19:17:45 10° SW 19:21:47 25° W 19:25:56 10° NW
CZ-2C R/B 2.8 19:17:20 10° NNE 19:22:52 83° WNW 19:28:28 10° SSW
ATLAS 2AS CENTAUR R/B 3.8 19:24:48 28° E 19:24:48 28° E 19:30:21 10° ENE
SJ-6B 4.0 19:21:47 12° SSW 19:24:57 38° W 19:28:31 10° NNW
Lacrosse 4 Rocket 3.1 19:22:06 10° NNW 19:25:06 19° NNE 19:25:54 18° NE
KORONAS-FOTON 4.0 19:21:45 10° NNW 19:25:41 74° W 19:27:14 35° S
Landsat 7 4.2 19:25:47 40° E 19:26:38 44° ENE 19:31:09 10° N
NOSS 2-2 (D) 3.1 19:23:40 10° SW 19:27:14 83° NW 19:31:26 10° NE
Cosmos 1766 3.4 19:33:40 53° ENE 19:33:40 53° ENE 19:37:05 10° NNE
CENTAUR R/B 3.2 19:25:50 10° NW 19:33:44 82° SW 19:38:32 31° SE
ATLAS CENTAUR R/B 3.9 19:31:58 10° NW 19:34:02 14° NNW 19:36:04 10° NNE
SPOT 1/Viking Rocket 3.9 19:33:46 40° E 19:34:42 45° ENE 19:39:37 10° N
Cosmos 1844 3.7 19:30:29 10° S 19:36:03 58° ESE 19:41:35 10° NE
IGS 5A 3.7 19:37:08 50° ENE 19:37:08 50° ENE 19:41:08 10° N
Cosmos 1634 Rocket 3.9 19:34:23 29° SSE 19:37:35 61° E 19:43:42 10° NNE
ARIANE 5 R/B 2.6 19:37:43 58° E 19:38:08 61° ENE 19:42:26 10° N
ATLAS 3B R/B 3.0 19:33:16 10° NW 19:39:58 58° NE 19:42:49 35° E
Cosmos 1269 Rocket 3.9 19:34:43 10° NNW 19:40:04 76° ENE 19:41:30 49° SE
Cosmos 2263 Rocket 3.7 19:36:05 10° WSW 19:41:13 36° NW 19:46:24 10° NNE
USA 238 DEB 4.3 19:34:28 10° NW 19:41:28 56° SW 19:45:38 26° SSE
USA 238 4.3 19:34:34 10° NW 19:41:34 57° SW 19:45:43 27° SSE
Cosmos 2285 Rocket 3.9 19:36:08 10° S 19:42:21 65° ESE 19:48:39 10° NNE
MetOp-B 4.0 19:41:10 45° SE 19:42:50 76° ENE 19:48:12 10° NNW
ISS -1.5 19:40:14 10° SW 19:41:14 17° SW 19:41:14 17° SW
Abrixas rocket 4.3 19:41:34 10° WSW 19:42:32 18° WSW 19:42:32 18° WSW
Cosmos 1844 Rocket 2.5 19:42:24 10° SSW 19:47:58 82° ESE 19:53:37 10° NNE
Spot 2 Rocket 3.5 19:48:07 56° ESE 19:48:50 63° ENE 19:53:50 10° N
Okean 1 Rocket 3.1 19:51:21 40° SSW 19:52:57 79° WNW 19:57:29 10° N
Cosmos 1340 Rocket 4.4 19:55:19 25° NNE 19:55:19 25° NNE 19:57:10 10° NNE
Lacrosse 5 rocket 2.4 19:49:40 10° WNW 19:53:54 44° N 19:55:13 35° NE
Cosmos 1092 Rocket 4.3 19:50:12 10° NNW 19:56:16 62° W 20:00:15 22° SSW
Cosmos 2026 Rocket 4.2 19:57:30 10° NNW 20:03:50 71° W 20:06:56 32° S
CZ-2C R/B 3.8 19:59:45 10° NNE 20:04:11 71° WNW 20:05:30 44° SW
Meteor 2-19 Rocket 4.4 19:58:28 10° N 20:04:38 69° ENE 20:05:40 58° SE
Cosmos 1833 Rocket 2.7 20:01:30 10° NNW 20:07:10 66° NE 20:07:46 61° E
NOSS 2-2 (C) 4.4 20:08:32 10° WSW 20:12:01 42° NNW 20:15:45 12° NE
Cosmos 2251 Rocket 4.0 20:07:34 10° NNW 20:12:48 48° ENE 20:12:48 48° ENE
Cosmos 1626 3.4 20:14:49 10° NNW 20:17:51 39° WNW 20:17:51 39° WNW
Terra 2.6 20:19:13 40° NE 20:19:13 40° NE 20:22:54 10° N
Cosmos 1892 Rocket 3.9 20:16:11 10° NNW 20:20:06 62° WNW 20:20:06 62° WNW
Cosmos 2279 Rocket 3.8 20:20:51 63° SSE 20:21:53 79° E 20:28:11 10° NNE
Cosmos 2142 Rocket 4.4 20:21:19 51° S 20:23:05 89° W 20:29:23 10° N
USA 234 3.1 20:19:23 19° ENE 20:24:22 76° SSE 20:30:56 10° SW
CARTOSAT-1 4.3 20:29:30 48° N 20:29:30 48° N 20:32:42 10° NNW
SPOT 5 3.1 20:40:10 72° N 20:40:10 72° N 20:44:57 10° NNW
Cosmos 2082 Rocket 2.3 20:41:24 10° NNW 20:46:33 70° NNE 20:46:33 70° NNE
COSMOS 2406 3.7 20:49:00 10° NW 20:54:20 50° WSW 20:54:20 50° WSW
ERS-1 Rocket 3.5 20:57:24 56° WNW 20:57:24 56° WNW 21:01:39 10° NNW
Resurs 01 Rocket 3.9 20:56:51 16° WSW 20:57:49 17° W 21:00:48 10° NW
Cosmos 2098 Rocket 4.3 20:55:54 10° NNW 21:03:06 65° W 21:03:50 61° SW
Lacrosse 4 Rocket 3.4 21:00:16 10° NW 21:02:11 27° NW 21:02:11 27° NW
Cosmos 2266 Rocket 4.0 20:59:46 10° NNW 21:05:35 72° WNW 21:05:35 72° WNW
Cosmos 1809 Rocket 4.5 21:02:45 10° NNW 21:08:28 77° NNW 21:08:28 77° NNW
Cosmos 1655 Rocket 4.4 21:06:01 10° NNW 21:12:05 53° W 21:12:30 53° WSW
ATLAS 2AS CENTAUR R/B 2.9 21:11:59 54° SW 21:14:09 87° SE 21:22:01 10° NE
ATLAS CENTAUR R/B 4.1 21:12:22 10° NNW 21:13:41 13° N 21:13:41 13° N
SME Rocket 4.5 21:10:13 10° NNE 21:14:53 46° NNE 21:14:53 46° NNE
Cosmos 2278 Rocket 3.4 21:22:33 34° NNE 21:22:33 34° NNE 21:25:40 10° NNE
CENTAUR R/B 4.4 21:17:12 10° WNW 21:23:49 28° WSW 21:25:44 26° SW
ATLAS 3B R/B 3.2 21:24:07 10° NW 21:30:03 48° WSW 21:30:03 48° WSW
Lacrosse 5 rocket 3.7 21:29:09 10° WNW 21:30:51 23° NW 21:30:51 23° NW
Cosmos 1833 Rocket 4.4 21:46:02 10° NW 21:49:28 25° W 21:49:28 25° W
Terra 3.9 21:58:06 23° WNW 21:58:06 23° WNW 22:00:27 10° NNW
USA 234 3.5 22:00:54 10° ENE 22:07:22 64° NNW 22:13:49 10° W
Cosmos 2082 Rocket 4.3 22:26:19 10° NW 22:28:23 18° WNW 22:28:23 18° WNW
Cosmos 1943 Rocket 4.1 22:35:45 22° NE 22:35:45 22° NE 22:37:44 10° NE
COSMOS 2455 4.1 22:35:52 36° NNE 22:35:52 36° NNE 22:39:22 10° NE
USA 229 DEB 4.4 22:29:53 10° NW 22:36:49 52° NNE 22:37:21 51° NE
USA 229 4.4 22:30:00 10° NW 22:36:55 52° NNE 22:37:28 51° NE
NOSS 3-4 (A) 4.5 22:41:29 40° NW 22:42:20 42° NNW 22:48:40 10° NE
NOSS 3-4 (C) 4.5 22:41:39 41° NW 22:42:26 42° NNW 22:48:46 10° NE
NOSS 3-1 (A) 4.5 22:42:04 10° NW 22:48:52 52° NNE 22:50:19 46° ENE
Cosmos 2369 Rocket 4.0 22:59:18 25° NE 22:59:18 25° NE 23:01:38 10° NE
CZ-4C R/B 3.6 23:02:01 35° NE 23:02:01 35° NE 23:05:48 10° NE
Cosmos 2278 Rocket 4.0 23:04:23 25° NW 23:04:48 26° NW 23:09:30 10° NNE
ATLAS 2AS CENTAUR R/B 3.9 22:59:08 13° W 23:05:58 44° NNW 23:13:17 10° NE
NOSS 3-1 (C) 4.2 23:23:11 10° NW 23:28:49 60° NW 23:28:49 60° NW
Cosmos 2227 Rocket 3.9 23:37:30 10° NNW 23:42:21 28° NE 23:43:29 26° ENE
USA 234 3.6 23:43:37 10° E 23:50:02 62° N 23:56:29 10° WNW
